DW7525 Weather Reports


time (UTC)temp
F
wind
direction
speed
knots
gust
knots
rain 1hr
in
rain 24hr
in
rain mn
in
humidity
%
barometer
mb
20260906220824 85 91 5.2 19.1 0.00 0.00 0.00 34 1016.9
20260906220359 85 117 6.1 19.1 0.00 0.00 0.00 35 1016.9
20260906215912 86 211 4.3 8.7 0.00 0.00 0.00 34 1016.8
20260906215829 86 211 4.3 8.7 0.00 0.00 0.00 34 1016.8
20260906215323 85 98 6.1 9.6 0.00 0.00 0.00 34 1017.0
20260906214858 85 175 5.2 12.2 0.00 0.00 0.00 35 1016.9
20260906214351 84 71 5.2 12.2 0.00 0.00 0.00 38 1017.0
20260906213906 84 76 5.2 10.4 0.00 0.00 0.00 37 1017.2
20260906213336 84 89 6.1 11.3 0.00 0.00 0.00 37 1017.4
20260906212911 84 123 5.2 11.3 0.00 0.00 0.00 38 1017.4
20260906212405 84 109 5.2 10.4 0.00 0.00 0.00 38 1017.5
20260906211916 84 117 7.0 11.3 0.00 0.00 0.00 38 1017.6
20260906211834 84 117 7.0 11.3 0.00 0.00 0.00 38 1017.6
20260906211348 84 83 7.0 11.3 0.00 0.00 0.00 37 1017.6
20260906210841 84 96 7.0 11.3 0.00 0.00 0.00 37 1017.7
20260906210357 84 99 4.3 11.3 0.00 0.00 0.00 36 1017.6
20260906205911 84 98 5.2 10.4 0.00 0.00 0.00 36 1017.6
20260906205324 84 70 6.1 11.3 0.00 0.00 0.00 36 1017.8
20260906204836 84 121 3.5 12.2 0.00 0.00 0.00 35 1017.9
20260906204354 84 39 4.3 12.2 0.00 0.00 0.00 35 1018.0
20260906203827 84 96 2.6 7.0 0.00 0.00 0.00 35 1018.2
20260906203323 84 109 3.5 10.4 0.00 0.00 0.00 34 1018.2
20260906202857 84 84 4.3 11.3 0.00 0.00 0.00 34 1018.2
20260906202427 84 110 5.2 11.3 0.00 0.00 0.00 34 1018.4
20260906201859 85 126 0.9 8.7 0.00 0.00 0.00 33 1018.5
20260906201411 85 70 2.6 9.6 0.00 0.00 0.00 34 1018.6
20260906201329 85 70 2.6 9.6 0.00 0.00 0.00 34 1018.6
20260906200842 86 140 1.7 5.2 0.00 0.00 0.00 33 1018.6
20260906200335 86 91 2.6 12.2 0.00 0.00 0.00 32 1018.6
20260906195934 88 128 7.0 12.2 0.00 0.00 0.00 31 1018.7
20260906195404 89 163 2.6 9.6 0.00 0.00 0.00 31 1018.7
20260906194917 88 174 4.3 12.2 0.00 0.00 0.00 32 1018.7
20260906194835 88 174 4.3 12.2 0.00 0.00 0.00 32 1018.7
20260906194348 87 69 5.2 12.2 0.00 0.00 0.00 33 1018.7
20260906193922 86 88 2.6 10.4 0.00 0.00 0.00 33 1018.8
20260906193353 86 162 4.3 10.4 0.00 0.00 0.00 33 1018.9
20260906192847 86 175 4.3 12.2 0.00 0.00 0.00 31 1018.9
20260906192318 87 122 3.5 12.2 0.00 0.00 0.00 31 1018.9
20260906191857 87 13 3.5 9.6 0.00 0.00 0.00 31 1019.1
20260906191430 88 74 2.6 8.7 0.00 0.00 0.00 31 1019.2
20260906191348 88 74 2.6 8.7 0.00 0.00 0.00 31 1019.2
20260906190843 88 96 3.5 8.7 0.00 0.00 0.00 30 1019.3
20260906190318 88 96 0.9 8.7 0.00 0.00 0.00 31 1019.3
20260906185915 87 15 2.6 7.8 0.00 0.00 0.00 32 1019.5
20260906185348 87 46 1.7 8.7 0.00 0.00 0.00 32 1019.5
20260906184821 87 54 3.5 8.7 0.00 0.00 0.00 34 1019.6
20260906184411 87 36 2.6 7.8 0.00 0.00 0.00 34 1019.7
20260906183844 87 98 3.5 7.0 0.00 0.00 0.00 34 1019.9
20260906183323 87 19 2.6 6.1 0.00 0.00 0.00 33 1020.0
20260906182852 87 130 2.6 4.3 0.00 0.00 0.00 33 1020.2
20260906182329 86 84 1.7 5.2 0.00 0.00 0.00 35 1020.2
20260906181822 85 44 1.7 7.0 0.00 0.00 0.00 34 1020.4
20260906181355 85 12 1.7 7.0 0.00 0.00 0.00 33 1020.5
20260906180831 84 9 2.6 6.1 0.00 0.00 0.00 35 1020.6
20260906180408 84 9 2.6 6.1 0.00 0.00 0.00 34 1020.7
20260906175824 85 9 1.7 6.1 0.00 0.00 0.00 38 1020.8
20260906175440 84 10 3.5 6.1 0.00 0.00 0.00 35 1021.0
20260906175357 84 10 3.5 6.1 0.00 0.00 0.00 35 1021.0
20260906174912 84 9 1.7 6.1 0.00 0.00 0.00 37 1021.1
20260906174830 84 9 1.7 6.1 0.00 0.00 0.00 37 1021.1
20260906174404 84 9 2.6 6.1 0.00 0.00 0.00 39 1021.1
20260906174321 84 9 2.6 6.1 0.00 0.00 0.00 39 1021.1
20260906173835 84 96 1.7 4.3 0.00 0.00 0.00 36 1021.2
20260906173329 84 11 2.6 4.3 0.00 0.00 0.00 37 1021.4
20260906172904 83 98 1.7 5.2 0.00 0.00 0.00 36 1021.4
20260906172417 83 90 1.7 4.3 0.00 0.00 0.00 36 1021.5
20260906171929 83 76 0.9 4.3 0.00 0.00 0.00 37 1021.5
20260906171417 83 66 2.6 4.3 0.00 0.00 0.00 37 1021.7
20260906170849 82 100 0.9 4.3 0.00 0.00 0.00 39 1021.7
20260906170343 82 143 0.9 4.3 0.00 0.00 0.00 39 1021.8
20260906165835 81 100 0.9 3.5 0.00 0.00 0.00 37 1021.8
20260906165333 80 9 0.0 2.6 0.00 0.00 0.00 40 1021.8
20260906164827 80 9 1.7 2.6 0.00 0.00 0.00 39 1021.9
20260906164342 79 41 0.9 3.5 0.00 0.00 0.00 41 1021.9
20260906163835 79 82 0.0 3.5 0.00 0.00 0.00 39 1022.0
20260906163350 79 12 0.9 3.5 0.00 0.00 0.00 43 1022.0
20260906162904 79 13 0.0 5.2 0.00 0.00 0.00 43 1022.1
20260906162335 78 98 0.9 5.2 0.00 0.00 0.00 43 1022.1
20260906161911 78 84 0.0 4.3 0.00 0.00 0.00 43 1022.1
20260906161323 77 360 0.0 3.5 0.00 0.00 0.00 43 1022.2
20260906160936 77 360 0.9 2.6 0.00 0.00 0.00 44 1022.2
20260906160833 77 360 0.9 2.6 0.00 0.00 0.00 44 1022.2
20260906160407 77 340 0.9 3.5 0.00 0.00 0.00 43 1022.2
20260906155901 77 340 2.6 3.5 0.00 0.00 0.00 45 1022.1
20260906155353 76 5 0.0 2.6 0.00 0.00 0.00 47 1022.0
20260906154841 76 9 0.0 4.3 0.00 0.00 0.00 46 1022.0
20260906154319 75 13 0.9 2.6 0.00 0.00 0.00 47 1021.9
20260906153832 75 13 0.9 2.6 0.00 0.00 0.00 46 1022.0
20260906153326 75 5 0.9 2.6 0.00 0.00 0.00 46 1022.0
20260906152937 74 12 0.9 2.6 0.00 0.00 0.00 48 1022.0
20260906152855 74 12 0.9 2.6 0.00 0.00 0.00 48 1022.0
20260906152325 74 13 0.9 3.5 0.00 0.00 0.00 50 1022.0
20260906151843 73 5 1.7 3.5 0.00 0.00 0.00 52 1021.9
20260906151418 73 5 1.7 3.5 0.00 0.00 0.00 50 1021.9
20260906150933 73 9 0.0 2.6 0.00 0.00 0.00 52 1022.0
20260906150851 73 9 0.0 2.6 0.00 0.00 0.00 52 1022.0
20260906150357 72 9 0.0 2.6 0.00 0.00 0.00 55 1022.1
20260906145849 71 5 0.9 2.6 0.00 0.00 0.00 55 1022.1
20260906145401 71 5 0.0 1.7 0.00 0.00 0.00 57 1022.1
20260906144913 71 5 0.0 1.7 0.00 0.00 0.00 60 1022.0
20260906144346 70 5 0.0 1.7 0.00 0.00 0.00 60 1022.0
20260906143840 70 5 0.0 1.7 0.00 0.00 0.00 60 1022.0
20260906143413 70 5 0.0 0.9 0.00 0.00 0.00 61 1022.1
20260906143330 70 5 0.0 0.9 0.00 0.00 0.00 61 1022.1
20260906142905 69 5 0.0 1.7 0.00 0.00 0.00 62 1022.0
20260906142823 69 5 0.0 1.7 0.00 0.00 0.00 62 1022.0
20260906142335 69 5 0.0 1.7 0.00 0.00 0.00 62 1022.0
20260906141850 69 23 0.9 2.6 0.00 0.00 0.00 61 1022.1
20260906141405 69 15 1.7 2.6 0.00 0.00 0.00 59 1022.2
20260906141323 69 15 1.7 2.6 0.00 0.00 0.00 59 1022.2
20260906140916 68 18 0.9 1.7 0.00 0.00 0.00 59 1022.2
20260906140834 68 18 0.9 1.7 0.00 0.00 0.00 59 1022.2
20260906140333 68 16 0.0 1.7 0.00 0.00 0.00 59 1022.2
20260906135847 68 15 0.0 1.7 0.00 0.00 0.00 59 1022.0
20260906135340 68 13 0.0 1.7 0.00 0.00 0.00 60 1022.0
20260906134908 67 11 0.0 0.0 0.00 0.00 0.00 62 1021.9
20260906134403 65 36 0.0 0.0 0.00 0.00 0.00 63 1021.8
20260906133855 64 17 0.0 0.0 0.00 0.00 0.00 64 1021.8
20260906133348 64 21 0.0 0.0 0.00 0.00 0.00 65 1021.7
20260906132901 63 19 0.0 0.0 0.00 0.00 0.00 67 1021.6
20260906132335 62 236 0.0 0.0 0.00 0.00 0.00 68 1021.6
20260906131829 61 33 0.0 0.0 0.00 0.00 0.00 69 1021.5
20260906131323 60 234 0.0 0.0 0.00 0.00 0.00 70 1021.5
20260906130818 59 235 0.0 0.9 0.00 0.00 0.00 71 1021.6
20260906130353 59 235 0.0 0.9 0.00 0.00 0.00 70 1021.5
20260906125826 58 221 0.0 0.0 0.00 0.00 0.00 69 1021.6
20260906125341 58 195 0.0 0.0 0.00 0.00 0.00 68 1021.6
20260906124833 58 194 0.0 0.0 0.00 0.00 0.00 68 1021.5
20260906124331 59 202 0.0 0.0 0.00 0.00 0.00 67 1021.4
20260906123824 59 216 0.0 0.0 0.00 0.00 0.00 67 1021.4
20260906123419 59 216 0.0 0.0 0.00 0.00 0.00 67 1021.4
20260906122931 59 217 0.0 0.0 0.00 0.00 0.00 66 1021.3
20260906122345 59 218 0.0 0.0 0.00 0.00 0.00 66 1021.3
20260906121919 59 19 0.0 0.0 0.00 0.00 0.00 66 1021.4
20260906121330 59 21 0.0 0.0 0.00 0.00 0.00 65 1021.3
20260906120827 60 19 0.0 0.0 0.00 0.00 0.00 65 1021.3
20260906120322 60 17 0.0 0.0 0.00 0.00 0.00 64 1021.3
20260906115917 60 18 0.0 0.0 0.00 0.00 0.00 64 1021.4
20260906115835 60 18 0.0 0.0 0.00 0.00 0.00 64 1021.4
20260906115328 60 223 0.0 0.0 0.00 0.00 0.00 63 1021.3
20260906114825 61 220 0.0 0.0 0.00 0.00 0.00 62 1021.3
20260906114318 61 220 0.0 0.0 0.00 0.00 0.00 62 1021.4
20260906113851 61 223 0.0 0.0 0.00 0.00 0.00 62 1021.3
20260906113345 61 223 0.0 0.0 0.00 0.00 0.00 62 1021.4
20260906112914 61 225 0.0 0.0 0.00 0.00 0.00 62 1021.2
20260906112345 61 225 0.0 0.0 0.00 0.00 0.00 62 1021.1
20260906111903 61 25 0.0 0.0 0.00 0.00 0.00 62 1021.1
20260906111335 61 22 0.0 0.0 0.00 0.00 0.00 62 1021.0
20260906110829 61 28 0.0 0.0 0.00 0.00 0.00 62 1021.1
20260906110343 61 19 0.0 0.0 0.00 0.00 0.00 62 1021.1
20260906105937 61 17 0.0 0.0 0.00 0.00 0.00 62 1021.1
20260906105834 61 17 0.0 0.0 0.00 0.00 0.00 62 1021.1
20260906105349 60 17 0.0 0.0 0.00 0.00 0.00 63 1021.1
20260906104843 60 19 0.0 0.0 0.00 0.00 0.00 63 1021.0
20260906104321 61 15 0.0 0.0 0.00 0.00 0.00 62 1020.9
20260906103835 61 226 0.0 0.9 0.00 0.00 0.00 62 1020.9
20260906103430 61 18 0.0 0.9 0.00 0.00 0.00 62 1021.1
20260906103348 61 18 0.0 0.9 0.00 0.00 0.00 62 1021.1
20260906102923 61 13 0.0 2.6 0.00 0.00 0.00 62 1021.1
20260906102840 61 13 0.0 2.6 0.00 0.00 0.00 62 1021.1
20260906102354 61 12 0.9 2.6 0.00 0.00 0.00 62 1021.0
20260906101827 61 15 0.0 1.7 0.00 0.00 0.00 62 1020.9
20260906101320 61 15 0.0 1.7 0.00 0.00 0.00 62 1020.9
20260906100857 61 13 0.0 0.0 0.00 0.00 0.00 62 1020.9
20260906100350 61 11 0.0 0.0 0.00 0.00 0.00 62 1020.8
20260906095903 61 11 0.0 0.0 0.00 0.00 0.00 61 1020.9
20260906095436 61 11 0.0 0.0 0.00 0.00 0.00 61 1020.9
20260906095353 61 11 0.0 0.0 0.00 0.00 0.00 61 1020.9
20260906094828 62 11 0.0 0.9 0.00 0.00 0.00 60 1020.9
20260906094343 63 13 0.0 0.9 0.00 0.00 0.00 59 1020.9
20260906093914 63 14 0.0 0.0 0.00 0.00 0.00 58 1020.9
20260906093410 63 12 0.0 0.0 0.00 0.00 0.00 57 1020.9
20260906092821 64 17 0.0 0.0 0.00 0.00 0.00 56 1020.9
20260906092355 64 26 0.0 0.0 0.00 0.00 0.00 56 1020.9
20260906091828 64 38 0.0 0.0 0.00 0.00 0.00 55 1020.9
20260906091406 64 25 0.0 2.6 0.00 0.00 0.00 54 1020.8
20260906090901 64 14 0.0 2.6 0.00 0.00 0.00 54 1020.7
20260906090337 64 23 0.0 0.9 0.00 0.00 0.00 54 1020.7
20260906085853 65 24 0.0 0.9 0.00 0.00 0.00 55 1020.7
20260906085346 65 23 0.0 0.0 0.00 0.00 0.00 54 1020.7
20260906084820 65 18 0.0 0.0 0.00 0.00 0.00 53 1020.7
20260906084334 66 22 0.0 1.7 0.00 0.00 0.00 53 1020.7
20260906083849 66 15 0.9 1.7 0.00 0.00 0.00 52 1020.6
20260906083322 66 17 0.0 3.5 0.00 0.00 0.00 52 1020.7
20260906082837 66 19 1.7 3.5 0.00 0.00 0.00 52 1020.7
20260906082432 65 15 1.7 2.6 0.00 0.00 0.00 53 1020.8
20260906082328 65 15 1.7 2.6 0.00 0.00 0.00 53 1020.8
20260906081846 66 17 0.9 3.5 0.00 0.00 0.00 53 1020.8
20260906081339 66 15 0.9 3.5 0.00 0.00 0.00 52 1020.8
20260906080909 65 14 0.9 3.5 0.00 0.00 0.00 52 1020.9
20260906080827 65 14 0.9 3.5 0.00 0.00 0.00 52 1020.9
20260906080333 65 13 0.9 2.6 0.00 0.00 0.00 54 1020.9
20260906075848 64 11 1.7 2.6 0.00 0.00 0.00 54 1021.0
20260906075326 64 12 1.7 2.6 0.00 0.00 0.00 56 1021.0
20260906074820 64 11 0.9 2.6 0.00 0.00 0.00 56 1021.0
20260906074333 64 13 0.0 1.7 0.00 0.00 0.00 57 1021.0
20260906073926 65 11 0.0 0.0 0.00 0.00 0.00 57 1021.0
20260906073844 65 11 0.0 0.0 0.00 0.00 0.00 57 1021.0
20260906073417 65 11 0.0 0.0 0.00 0.00 0.00 56 1021.0
20260906073335 65 11 0.0 0.0 0.00 0.00 0.00 56 1021.0
20260906072828 66 13 0.0 1.7 0.00 0.00 0.00 54 1020.9
20260906072423 66 11 0.0 1.7 0.00 0.00 0.00 54 1021.0
20260906072320 66 11 0.0 1.7 0.00 0.00 0.00 54 1021.0
20260906071916 66 9 0.0 1.7 0.00 0.00 0.00 53 1020.9
20260906071407 67 9 0.0 0.9 0.00 0.00 0.00 52 1020.9
20260906070919 67 5 0.0 1.7 0.00 0.00 0.00 52 1020.9
20260906070837 67 5 0.0 1.7 0.00 0.00 0.00 52 1020.9
20260906070351 67 9 0.0 2.6 0.00 0.00 0.00 51 1020.8
20260906065904 68 9 0.9 2.6 0.00 0.00 0.00 51 1020.7
20260906065822 68 9 0.9 2.6 0.00 0.00 0.00 51 1020.7
20260906065317 68 5 0.9 2.6 0.00 0.00 0.00 50 1020.7
20260906064855 68 5 0.9 2.6 0.00 0.00 0.00 50 1020.8
20260906064406 68 5 0.9 3.5 0.00 0.00 0.00 49 1020.7
20260906063821 69 11 1.7 3.5 0.00 0.00 0.00 49 1020.8
20260906063336 69 11 1.7 3.5 0.00 0.00 0.00 49 1020.8
20260906062850 69 12 0.9 2.6 0.00 0.00 0.00 49 1020.8
20260906062420 69 9 0.9 2.6 0.00 0.00 0.00 49 1020.8
20260906062338 69 9 0.9 2.6 0.00 0.00 0.00 49 1020.8
20260906061831 70 9 0.9 4.3 0.00 0.00 0.00 49 1020.8
20260906061406 70 10 1.7 4.3 0.00 0.00 0.00 49 1020.9
20260906060901 70 15 0.0 1.7 0.00 0.00 0.00 47 1020.9
20260906060414 71 9 0.0 0.9 0.00 0.00 0.00 49 1020.9
20260906055824 71 11 0.0 1.7 0.00 0.00 0.00 48 1021.1
20260906055343 71 9 0.0 2.6 0.00 0.00 0.00 48 1021.1
20260906054855 72 10 0.9 2.6 0.00 0.00 0.00 48 1021.1
20260906054330 72 236 0.0 0.9 0.00 0.00 0.00 51 1021.0
20260906053845 72 234 0.0 1.7 0.00 0.00 0.00 50 1021.0
20260906053358 72 236 0.0 3.5 0.00 0.00 0.00 51 1021.1
20260906052830 72 342 0.9 3.5 0.00 0.00 0.00 55 1021.1
20260906052426 71 169 0.0 1.7 0.00 0.00 0.00 58 1021.0
20260906052322 71 169 0.0 1.7 0.00 0.00 0.00 58 1021.0
20260906051815 71 169 0.0 0.0 0.00 0.00 0.00 59 1021.0
20260906051332 71 167 0.0 0.9 0.00 0.00 0.00 59 1021.0
20260906050827 70 169 0.0 2.6 0.00 0.00 0.00 59 1021.1
20260906050321 70 169 0.9 2.6 0.00 0.00 0.00 59 1021.2
20260906045916 70 9 0.9 1.7 0.00 0.00 0.00 59 1021.1
20260906045347 70 9 0.0 0.0 0.00 0.00 0.00 59 1021.1
20260906044915 71 9 0.0 0.0 0.00 0.00 0.00 58 1021.2
20260906044832 71 9 0.0 0.0 0.00 0.00 0.00 58 1021.2
20260906044409 71 5 0.0 0.0 0.00 0.00 0.00 57 1021.3
20260906044327 71 5 0.0 0.0 0.00 0.00 0.00 57 1021.3
20260906043925 71 169 0.0 0.0 0.00 0.00 0.00 57 1021.2
20260906043822 71 169 0.0 0.0 0.00 0.00 0.00 57 1021.2
20260906043315 71 169 0.0 0.0 0.00 0.00 0.00 56 1021.2
20260906042850 71 167 0.0 0.9 0.00 0.00 0.00 55 1021.2
20260906042324 72 169 0.0 0.9 0.00 0.00 0.00 54 1021.3
20260906041818 72 167 0.0 0.9 0.00 0.00 0.00 54 1021.3
20260906041331 72 169 0.0 0.0 0.00 0.00 0.00 52 1021.2
20260906040911 73 169 0.0 0.0 0.00 0.00 0.00 51 1021.3
20260906040436 73 169 0.0 0.9 0.00 0.00 0.00 50 1021.3
20260906040332 73 169 0.0 0.9 0.00 0.00 0.00 50 1021.3
20260906035926 73 169 0.0 0.9 0.00 0.00 0.00 48 1021.2
20260906035322 74 150 0.0 1.7 0.00 0.00 0.00 48 1021.2
20260906034857 74 169 0.0 1.7 0.00 0.00 0.00 45 1021.3
20260906034426 74 166 0.0 1.7 0.00 0.00 0.00 42 1021.2
20260906033920 74 169 0.0 3.5 0.00 0.00 0.00 40 1021.2
20260906033837 74 169 0.0 3.5 0.00 0.00 0.00 40 1021.2
20260906033353 74 169 0.9 3.5 0.00 0.00 0.00 40 1021.2
20260906032927 74 161 0.0 6.1 0.00 0.00 0.00 43 1021.1
20260906032824 74 161 0.0 6.1 0.00 0.00 0.00 43 1021.1
20260906032317 74 213 1.7 7.0 0.00 0.00 0.00 38 1021.1
20260906031913 74 209 3.5 9.6 0.00 0.00 0.00 38 1021.1
20260906031404 74 196 4.3 9.6 0.00 0.00 0.00 37 1021.1
20260906030938 74 315 0.0 0.9 0.00 0.00 0.00 37 1020.5
20260906030856 74 315 0.0 0.9 0.00 0.00 0.00 37 1020.5
20260906030323 74 315 0.0 2.6 0.00 0.00 0.00 37 1020.2
20260906025919 74 315 0.0 5.2 0.00 0.00 0.00 38 1020.0
20260906025837 74 315 0.0 5.2 0.00 0.00 0.00 38 1020.0
20260906025413 74 314 0.9 5.2 0.00 0.00 0.00 37 1019.9
20260906025331 74 314 0.9 5.2 0.00 0.00 0.00 37 1019.9
20260906024927 74 214 0.0 0.0 0.00 0.00 0.00 38 1019.6
20260906024845 74 214 0.0 0.0 0.00 0.00 0.00 38 1019.6
20260906024357 74 215 0.0 0.0 0.00 0.00 0.00 36 1019.5
20260906023829 74 215 0.0 0.0 0.00 0.00 0.00 37 1019.4
20260906023344 75 210 0.0 0.0 0.00 0.00 0.00 38 1019.5
20260906022937 75 205 0.0 0.0 0.00 0.00 0.00 36 1019.5
20260906022430 76 215 0.0 0.0 0.00 0.00 0.00 34 1019.5
20260906022347 76 215 0.0 0.0 0.00 0.00 0.00 34 1019.5
20260906021821 76 209 0.0 0.9 0.00 0.00 0.00 35 1019.5
20260906021355 77 215 0.0 1.7 0.00 0.00 0.00 33 1019.5
20260906020905 77 207 0.9 1.7 0.00 0.00 0.00 31 1019.5
20260906020356 77 215 0.9 1.7 0.00 0.00 0.00 31 1019.4
20260906015829 77 184 0.0 0.0 0.00 0.00 0.00 31 1019.4
20260906015323 77 215 0.0 1.7 0.00 0.00 0.00 31 1019.3
20260906014858 78 215 0.0 1.7 0.00 0.00 0.00 31 1019.3
20260906014414 78 214 0.0 2.6 0.00 0.00 0.00 30 1019.3
20260906013846 79 19 0.9 2.6 0.00 0.00 0.00 30 1019.3
20260906013318 79 22 1.7 3.5 0.00 0.00 0.00 29 1019.3
20260906012831 80 22 1.7 3.5 0.00 0.00 0.00 29 1019.1
20260906012346 80 24 0.9 4.3 0.00 0.00 0.00 29 1019.1
20260906011818 80 30 2.6 8.7 0.00 0.00 0.00 29 1019.1
20260906011432 81 22 4.3 8.7 0.00 0.00 0.00 28 1019.2
20260906010823 81 15 1.7 4.3 0.00 0.00 0.00 28 1019.2
20260906010438 81 11 0.9 5.2 0.00 0.00 0.00 28 1019.1
20260906010355 81 11 0.9 5.2 0.00 0.00 0.00 28 1019.1
20260906005929 82 11 2.6 5.2 0.00 0.00 0.00 27 1019.2
20260906005826 82 11 2.6 5.2 0.00 0.00 0.00 27 1019.2
20260906005341 82 204 2.6 5.2 0.00 0.00 0.00 26 1019.3
20260906004911 82 208 1.7 5.2 0.00 0.00 0.00 26 1019.3
20260906004828 82 208 1.7 5.2 0.00 0.00 0.00 26 1019.3
20260906004321 83 211 1.7 5.2 0.00 0.00 0.00 26 1019.3
20260906003856 83 209 1.7 5.2 0.00 0.00 0.00 27 1019.3
20260906003349 83 190 1.7 6.1 0.00 0.00 0.00 26 1019.3
20260906002839 83 192 2.6 7.8 0.00 0.00 0.00 26 1019.3
20260906002336 83 14 4.3 7.8 0.00 0.00 0.00 26 1019.2
20260906001850 84 10 3.5 7.0 0.00 0.00 0.00 27 1019.2
20260906001424 84 11 4.3 7.0 0.00 0.00 0.00 26 1019.3
20260906001321 84 11 4.3 7.0 0.00 0.00 0.00 26 1019.3
20260906000900 84 11 3.5 7.0 0.00 0.00 0.00 26 1019.3
20260906000316 84 11 3.5 6.1 0.00 0.00 0.00 26 1019.2
20260905235852 84 17 2.6 8.7 0.00 0.00 0.00 27 1019.2
20260905235426 84 17 4.3 8.7 0.00 0.00 0.00 26 1019.1
20260905235322 84 17 4.3 8.7 0.00 0.00 0.00 26 1019.1
20260905234918 84 19 3.5 8.7 0.00 0.00 0.00 26 1019.1
20260905234331 84 192 4.3 8.7 0.00 0.00 0.00 26 1019.1
20260905233849 85 192 5.2 11.3 0.00 0.00 0.00 26 1019.1
20260905233439 85 182 6.1 11.3 0.00 0.00 0.00 26 1019.0
20260905232850 85 211 3.5 9.6 0.00 0.00 0.00 27 1018.9
20260905232344 85 190 2.6 5.2 0.00 0.00 0.00 26 1018.9
20260905231859 85 22 1.7 5.2 0.00 0.00 0.00 25 1019.0
20260905231350 85 18 2.6 5.2 0.00 0.00 0.00 26 1019.0
20260905230904 85 17 0.9 4.3 0.00 0.00 0.00 25 1019.0
20260905230822 85 17 0.9 4.3 0.00 0.00 0.00 25 1019.0
20260905230416 85 10 0.0 3.5 0.00 0.00 0.00 26 1019.0
20260905230334 85 10 0.0 3.5 0.00 0.00 0.00 26 1019.0
20260905225829 85 11 0.9 5.2 0.00 0.00 0.00 25 1018.9
20260905225403 85 12 0.9 5.2 0.00 0.00 0.00 26 1018.9
20260905225321 85 12 0.9 5.2 0.00 0.00 0.00 26 1018.9
20260905224836 85 13 0.9 4.3 0.00 0.00 0.00 25 1018.9
20260905224409 86 103 0.9 5.2 0.00 0.00 0.00 25 1018.9
20260905223858 86 105 1.7 5.2 0.00 0.00 0.00 24 1019.0
20260905223816 86 105 1.7 5.2 0.00 0.00 0.00 24 1019.0
20260905223353 87 82 0.9 6.1 0.00 0.00 0.00 24 1019.0
20260905222848 87 108 2.6 6.1 0.00 0.00 0.00 23 1019.1
20260905222321 88 115 0.9 6.1 0.00 0.00 0.00 24 1019.0
20260905221917 88 27 1.7 6.1 0.00 0.00 0.00 24 1019.1
20260905221835 88 27 1.7 6.1 0.00 0.00 0.00 24 1019.1
20260905221328 88 50 0.0 3.5 0.00 0.00 0.00 23 1019.0